Index of /20260424/WXO-DD/model_rdps/10km/00/001
Name Last modified Size Description
Parent Directory -
20260424T00Z_MSC_RDPS_AbsoluteVorticity_IsbL-0250_RLatLon0.09_PT001H.grib2 2026-04-24 02:40 603K
20260424T00Z_MSC_RDPS_AbsoluteVorticity_IsbL-0500_RLatLon0.09_PT001H.grib2 2026-04-24 02:40 542K
20260424T00Z_MSC_RDPS_AbsoluteVorticity_IsbL-0700_RLatLon0.09_PT001H.grib2 2026-04-24 02:40 602K
20260424T00Z_MSC_RDPS_AbsoluteVorticity_IsbL-0850_RLatLon0.09_PT001H.grib2 2026-04-24 02:40 761K
20260424T00Z_MSC_RDPS_AirTemp_AGL-120m_RLatLon0.09_PT001H.grib2 2026-04-24 02:40 363K
20260424T00Z_MSC_RDPS_AirTemp_AGL-2m_RLatLon0.09_PT001H.grib2 2026-04-24 02:40 602K
20260424T00Z_MSC_RDPS_AirTemp_AGL-40m_RLatLon0.09_PT001H.grib2 2026-04-24 02:40 388K
20260424T00Z_MSC_RDPS_AirTemp_AGL-80m_RLatLon0.09_PT001H.grib2 2026-04-24 02:40 366K
20260424T00Z_MSC_RDPS_AirTemp_IsbL-0001_RLatLon0.09_PT001H.grib2 2026-04-24 02:40 297K
20260424T00Z_MSC_RDPS_AirTemp_IsbL-0005_RLatLon0.09_PT001H.grib2 2026-04-24 02:40 318K
20260424T00Z_MSC_RDPS_AirTemp_IsbL-0010_RLatLon0.09_PT001H.grib2 2026-04-24 02:40 287K
20260424T00Z_MSC_RDPS_AirTemp_IsbL-0020_RLatLon0.09_PT001H.grib2 2026-04-24 02:40 303K
20260424T00Z_MSC_RDPS_AirTemp_IsbL-0030_RLatLon0.09_PT001H.grib2 2026-04-24 02:40 319K
20260424T00Z_MSC_RDPS_AirTemp_IsbL-0050_RLatLon0.09_PT001H.grib2 2026-04-24 02:40 302K
20260424T00Z_MSC_RDPS_AirTemp_IsbL-0100_RLatLon0.09_PT001H.grib2 2026-04-24 02:40 406K
20260424T00Z_MSC_RDPS_AirTemp_IsbL-0150_RLatLon0.09_PT001H.grib2 2026-04-24 02:40 415K
20260424T00Z_MSC_RDPS_AirTemp_IsbL-0175_RLatLon0.09_PT001H.grib2 2026-04-24 02:40 416K
20260424T00Z_MSC_RDPS_AirTemp_IsbL-0200_RLatLon0.09_PT001H.grib2 2026-04-24 02:40 419K
20260424T00Z_MSC_RDPS_AirTemp_IsbL-0225_RLatLon0.09_PT001H.grib2 2026-04-24 02:40 416K
20260424T00Z_MSC_RDPS_AirTemp_IsbL-0250_RLatLon0.09_PT001H.grib2 2026-04-24 02:40 417K
20260424T00Z_MSC_RDPS_AirTemp_IsbL-0275_RLatLon0.09_PT001H.grib2 2026-04-24 02:40 400K
20260424T00Z_MSC_RDPS_AirTemp_IsbL-0300_RLatLon0.09_PT001H.grib2 2026-04-24 02:40 405K
20260424T00Z_MSC_RDPS_AirTemp_IsbL-0350_RLatLon0.09_PT001H.grib2 2026-04-24 02:40 421K
20260424T00Z_MSC_RDPS_AirTemp_IsbL-0400_RLatLon0.09_PT001H.grib2 2026-04-24 02:40 422K
20260424T00Z_MSC_RDPS_AirTemp_IsbL-0450_RLatLon0.09_PT001H.grib2 2026-04-24 02:40 396K
20260424T00Z_MSC_RDPS_AirTemp_IsbL-0500_RLatLon0.09_PT001H.grib2 2026-04-24 02:40 412K
20260424T00Z_MSC_RDPS_AirTemp_IsbL-0550_RLatLon0.09_PT001H.grib2 2026-04-24 02:40 431K
20260424T00Z_MSC_RDPS_AirTemp_IsbL-0600_RLatLon0.09_PT001H.grib2 2026-04-24 02:40 447K
20260424T00Z_MSC_RDPS_AirTemp_IsbL-0650_RLatLon0.09_PT001H.grib2 2026-04-24 02:40 459K
20260424T00Z_MSC_RDPS_AirTemp_IsbL-0700_RLatLon0.09_PT001H.grib2 2026-04-24 02:40 481K
20260424T00Z_MSC_RDPS_AirTemp_IsbL-0750_RLatLon0.09_PT001H.grib2 2026-04-24 02:40 404K
20260424T00Z_MSC_RDPS_AirTemp_IsbL-0800_RLatLon0.09_PT001H.grib2 2026-04-24 02:40 446K
20260424T00Z_MSC_RDPS_AirTemp_IsbL-0850_RLatLon0.09_PT001H.grib2 2026-04-24 02:40 480K
20260424T00Z_MSC_RDPS_AirTemp_IsbL-0875_RLatLon0.09_PT001H.grib2 2026-04-24 02:40 491K
20260424T00Z_MSC_RDPS_AirTemp_IsbL-0900_RLatLon0.09_PT001H.grib2 2026-04-24 02:40 498K
20260424T00Z_MSC_RDPS_AirTemp_IsbL-0925_RLatLon0.09_PT001H.grib2 2026-04-24 02:40 501K
20260424T00Z_MSC_RDPS_AirTemp_IsbL-0950_RLatLon0.09_PT001H.grib2 2026-04-24 02:40 514K
20260424T00Z_MSC_RDPS_AirTemp_IsbL-0970_RLatLon0.09_PT001H.grib2 2026-04-24 02:40 498K
20260424T00Z_MSC_RDPS_AirTemp_IsbL-0985_RLatLon0.09_PT001H.grib2 2026-04-24 02:40 490K
20260424T00Z_MSC_RDPS_AirTemp_IsbL-1000_RLatLon0.09_PT001H.grib2 2026-04-24 02:40 472K
20260424T00Z_MSC_RDPS_AirTemp_IsbL-1015_RLatLon0.09_PT001H.grib2 2026-04-24 02:40 467K
20260424T00Z_MSC_RDPS_Albedo_Sfc_RLatLon0.09_PT001H.grib2 2026-04-24 02:40 164K
20260424T00Z_MSC_RDPS_CAPE_Sfc_RLatLon0.09_PT001H.grib2 2026-04-24 02:40 1.7M
20260424T00Z_MSC_RDPS_CIN_Sfc_RLatLon0.09_PT001H.grib2 2026-04-24 02:40 1.2M
20260424T00Z_MSC_RDPS_CloudWater_EAtm_RLatLon0.09_PT001H.grib2 2026-04-24 02:40 208K
20260424T00Z_MSC_RDPS_ConvectivePrecip-Accum_Sfc_RLatLon0.09_PT001H.grib2 2026-04-24 02:40 335K
20260424T00Z_MSC_RDPS_DewPointDepression_AGL-2m_RLatLon0.09_PT001H.grib2 2026-04-24 02:40 390K
20260424T00Z_MSC_RDPS_DewPointDepression_IsbL-0001_RLatLon0.09_PT001H.grib2 2026-04-24 02:40 193
20260424T00Z_MSC_RDPS_DewPointDepression_IsbL-0005_RLatLon0.09_PT001H.grib2 2026-04-24 02:40 193
20260424T00Z_MSC_RDPS_DewPointDepression_IsbL-0010_RLatLon0.09_PT001H.grib2 2026-04-24 02:40 193
20260424T00Z_MSC_RDPS_DewPointDepression_IsbL-0020_RLatLon0.09_PT001H.grib2 2026-04-24 02:40 193
20260424T00Z_MSC_RDPS_DewPointDepression_IsbL-0030_RLatLon0.09_PT001H.grib2 2026-04-24 02:40 193
20260424T00Z_MSC_RDPS_DewPointDepression_IsbL-0050_RLatLon0.09_PT001H.grib2 2026-04-24 02:40 83K
20260424T00Z_MSC_RDPS_DewPointDepression_IsbL-0100_RLatLon0.09_PT001H.grib2 2026-04-24 02:40 121K
20260424T00Z_MSC_RDPS_DewPointDepression_IsbL-0150_RLatLon0.09_PT001H.grib2 2026-04-24 02:40 154K
20260424T00Z_MSC_RDPS_DewPointDepression_IsbL-0175_RLatLon0.09_PT001H.grib2 2026-04-24 02:40 195K
20260424T00Z_MSC_RDPS_DewPointDepression_IsbL-0200_RLatLon0.09_PT001H.grib2 2026-04-24 02:40 227K
20260424T00Z_MSC_RDPS_DewPointDepression_IsbL-0225_RLatLon0.09_PT001H.grib2 2026-04-24 02:40 262K
20260424T00Z_MSC_RDPS_DewPointDepression_IsbL-0250_RLatLon0.09_PT001H.grib2 2026-04-24 02:40 294K
20260424T00Z_MSC_RDPS_DewPointDepression_IsbL-0275_RLatLon0.09_PT001H.grib2 2026-04-24 02:40 303K
20260424T00Z_MSC_RDPS_DewPointDepression_IsbL-0300_RLatLon0.09_PT001H.grib2 2026-04-24 02:40 322K
20260424T00Z_MSC_RDPS_DewPointDepression_IsbL-0350_RLatLon0.09_PT001H.grib2 2026-04-24 02:40 328K
20260424T00Z_MSC_RDPS_DewPointDepression_IsbL-0400_RLatLon0.09_PT001H.grib2 2026-04-24 02:40 338K
20260424T00Z_MSC_RDPS_DewPointDepression_IsbL-0450_RLatLon0.09_PT001H.grib2 2026-04-24 02:40 347K
20260424T00Z_MSC_RDPS_DewPointDepression_IsbL-0500_RLatLon0.09_PT001H.grib2 2026-04-24 02:40 363K
20260424T00Z_MSC_RDPS_DewPointDepression_IsbL-0550_RLatLon0.09_PT001H.grib2 2026-04-24 02:40 372K
20260424T00Z_MSC_RDPS_DewPointDepression_IsbL-0600_RLatLon0.09_PT001H.grib2 2026-04-24 02:40 375K
20260424T00Z_MSC_RDPS_DewPointDepression_IsbL-0650_RLatLon0.09_PT001H.grib2 2026-04-24 02:40 374K
20260424T00Z_MSC_RDPS_DewPointDepression_IsbL-0700_RLatLon0.09_PT001H.grib2 2026-04-24 02:40 381K
20260424T00Z_MSC_RDPS_DewPointDepression_IsbL-0750_RLatLon0.09_PT001H.grib2 2026-04-24 02:40 396K
20260424T00Z_MSC_RDPS_DewPointDepression_IsbL-0800_RLatLon0.09_PT001H.grib2 2026-04-24 02:40 426K
20260424T00Z_MSC_RDPS_DewPointDepression_IsbL-0850_RLatLon0.09_PT001H.grib2 2026-04-24 02:40 445K
20260424T00Z_MSC_RDPS_DewPointDepression_IsbL-0875_RLatLon0.09_PT001H.grib2 2026-04-24 02:40 445K
20260424T00Z_MSC_RDPS_DewPointDepression_IsbL-0900_RLatLon0.09_PT001H.grib2 2026-04-24 02:40 441K
20260424T00Z_MSC_RDPS_DewPointDepression_IsbL-0925_RLatLon0.09_PT001H.grib2 2026-04-24 02:40 431K
20260424T00Z_MSC_RDPS_DewPointDepression_IsbL-0950_RLatLon0.09_PT001H.grib2 2026-04-24 02:40 423K
20260424T00Z_MSC_RDPS_DewPointDepression_IsbL-0970_RLatLon0.09_PT001H.grib2 2026-04-24 02:40 418K
20260424T00Z_MSC_RDPS_DewPointDepression_IsbL-0985_RLatLon0.09_PT001H.grib2 2026-04-24 02:40 414K
20260424T00Z_MSC_RDPS_DewPointDepression_IsbL-1000_RLatLon0.09_PT001H.grib2 2026-04-24 02:40 404K
20260424T00Z_MSC_RDPS_DewPointDepression_IsbL-1015_RLatLon0.09_PT001H.grib2 2026-04-24 02:40 391K
20260424T00Z_MSC_RDPS_DewPoint_AGL-2m_RLatLon0.09_PT001H.grib2 2026-04-24 02:40 376K
20260424T00Z_MSC_RDPS_DownwardLongwaveRadiationFlux-Accum_Sfc_RLatLon0.09_PT001H.grib2 2026-04-24 02:40 532K
20260424T00Z_MSC_RDPS_DownwardShortwaveRadiationFlux-Accum_NTAtm_RLatLon0.09_PT001H.grib2 2026-04-24 02:40 64K
20260424T00Z_MSC_RDPS_DownwardShortwaveRadiationFlux-Accum_Sfc_RLatLon0.09_PT001H.grib2 2026-04-24 02:40 374K
20260424T00Z_MSC_RDPS_FreezingRain-Accum1h_Sfc_RLatLon0.09_PT001H.grib2 2026-04-24 02:40 23K
20260424T00Z_MSC_RDPS_FreezingRain-Accum_Sfc_RLatLon0.09_PT001H.grib2 2026-04-24 02:40 26K
20260424T00Z_MSC_RDPS_GeopotentialHeight_IsbL-0001_RLatLon0.09_PT001H.grib2 2026-04-24 02:40 268K
20260424T00Z_MSC_RDPS_GeopotentialHeight_IsbL-0005_RLatLon0.09_PT001H.grib2 2026-04-24 02:40 302K
20260424T00Z_MSC_RDPS_GeopotentialHeight_IsbL-0010_RLatLon0.09_PT001H.grib2 2026-04-24 02:40 331K
20260424T00Z_MSC_RDPS_GeopotentialHeight_IsbL-0020_RLatLon0.09_PT001H.grib2 2026-04-24 02:40 388K
20260424T00Z_MSC_RDPS_GeopotentialHeight_IsbL-0030_RLatLon0.09_PT001H.grib2 2026-04-24 02:40 390K
20260424T00Z_MSC_RDPS_GeopotentialHeight_IsbL-0050_RLatLon0.09_PT001H.grib2 2026-04-24 02:40 300K
20260424T00Z_MSC_RDPS_GeopotentialHeight_IsbL-0100_RLatLon0.09_PT001H.grib2 2026-04-24 02:40 285K
20260424T00Z_MSC_RDPS_GeopotentialHeight_IsbL-0150_RLatLon0.09_PT001H.grib2 2026-04-24 02:40 229K
20260424T00Z_MSC_RDPS_GeopotentialHeight_IsbL-0175_RLatLon0.09_PT001H.grib2 2026-04-24 02:40 234K
20260424T00Z_MSC_RDPS_GeopotentialHeight_IsbL-0200_RLatLon0.09_PT001H.grib2 2026-04-24 02:40 270K
20260424T00Z_MSC_RDPS_GeopotentialHeight_IsbL-0225_RLatLon0.09_PT001H.grib2 2026-04-24 02:40 272K
20260424T00Z_MSC_RDPS_GeopotentialHeight_IsbL-0250_RLatLon0.09_PT001H.grib2 2026-04-24 02:40 272K
20260424T00Z_MSC_RDPS_GeopotentialHeight_IsbL-0275_RLatLon0.09_PT001H.grib2 2026-04-24 02:40 240K
20260424T00Z_MSC_RDPS_GeopotentialHeight_IsbL-0300_RLatLon0.09_PT001H.grib2 2026-04-24 02:40 240K
20260424T00Z_MSC_RDPS_GeopotentialHeight_IsbL-0350_RLatLon0.09_PT001H.grib2 2026-04-24 02:40 236K
20260424T00Z_MSC_RDPS_GeopotentialHeight_IsbL-0400_RLatLon0.09_PT001H.grib2 2026-04-24 02:40 231K
20260424T00Z_MSC_RDPS_GeopotentialHeight_IsbL-0450_RLatLon0.09_PT001H.grib2 2026-04-24 02:40 299K
20260424T00Z_MSC_RDPS_GeopotentialHeight_IsbL-0500_RLatLon0.09_PT001H.grib2 2026-04-24 02:40 295K
20260424T00Z_MSC_RDPS_GeopotentialHeight_IsbL-0550_RLatLon0.09_PT001H.grib2 2026-04-24 02:40 291K
20260424T00Z_MSC_RDPS_GeopotentialHeight_IsbL-0600_RLatLon0.09_PT001H.grib2 2026-04-24 02:40 289K
20260424T00Z_MSC_RDPS_GeopotentialHeight_IsbL-0650_RLatLon0.09_PT001H.grib2 2026-04-24 02:40 258K
20260424T00Z_MSC_RDPS_GeopotentialHeight_IsbL-0700_RLatLon0.09_PT001H.grib2 2026-04-24 02:40 256K
20260424T00Z_MSC_RDPS_GeopotentialHeight_IsbL-0750_RLatLon0.09_PT001H.grib2 2026-04-24 02:40 257K
20260424T00Z_MSC_RDPS_GeopotentialHeight_IsbL-0800_RLatLon0.09_PT001H.grib2 2026-04-24 02:40 346K
20260424T00Z_MSC_RDPS_GeopotentialHeight_IsbL-0850_RLatLon0.09_PT001H.grib2 2026-04-24 02:40 352K
20260424T00Z_MSC_RDPS_GeopotentialHeight_IsbL-0875_RLatLon0.09_PT001H.grib2 2026-04-24 02:40 355K
20260424T00Z_MSC_RDPS_GeopotentialHeight_IsbL-0900_RLatLon0.09_PT001H.grib2 2026-04-24 02:40 360K
20260424T00Z_MSC_RDPS_GeopotentialHeight_IsbL-0925_RLatLon0.09_PT001H.grib2 2026-04-24 02:40 362K
20260424T00Z_MSC_RDPS_GeopotentialHeight_IsbL-0950_RLatLon0.09_PT001H.grib2 2026-04-24 02:40 364K
20260424T00Z_MSC_RDPS_GeopotentialHeight_IsbL-0970_RLatLon0.09_PT001H.grib2 2026-04-24 02:40 369K
20260424T00Z_MSC_RDPS_GeopotentialHeight_IsbL-0985_RLatLon0.09_PT001H.grib2 2026-04-24 02:40 290K
20260424T00Z_MSC_RDPS_GeopotentialHeight_IsbL-1000_RLatLon0.09_PT001H.grib2 2026-04-24 02:40 298K
20260424T00Z_MSC_RDPS_GeopotentialHeight_IsbL-1015_RLatLon0.09_PT001H.grib2 2026-04-24 02:40 308K
20260424T00Z_MSC_RDPS_Humidex_Sfc_RLatLon0.09_PT001H.grib2 2026-04-24 02:40 2.4M
20260424T00Z_MSC_RDPS_IcePellets-Accum1h_Sfc_RLatLon0.09_PT001H.grib2 2026-04-24 02:40 11K
20260424T00Z_MSC_RDPS_IcePellets-Accum_Sfc_RLatLon0.09_PT001H.grib2 2026-04-24 02:40 13K
20260424T00Z_MSC_RDPS_KIndex_Sfc_RLatLon0.09_PT001H.grib2 2026-04-24 02:40 2.3M
20260424T00Z_MSC_RDPS_LatentHeatNetFlux_Sfc_RLatLon0.09_PT001H.grib2 2026-04-24 02:40 328K
20260424T00Z_MSC_RDPS_LiftedIndex-MU-VT_IsbL-0500_RLatLon0.09_PT001H.grib2 2026-04-24 02:40 2.4M
20260424T00Z_MSC_RDPS_NetLongwaveRadiationFlux-Accum_Sfc_RLatLon0.09_PT001H.grib2 2026-04-24 02:40 671K
20260424T00Z_MSC_RDPS_NetShortwaveRadiationFlux-Accum_Sfc_RLatLon0.09_PT001H.grib2 2026-04-24 02:40 359K
20260424T00Z_MSC_RDPS_PlanetaryBoundaryLayerHeight_Sfc_RLatLon0.09_PT001H.grib2 2026-04-24 02:40 1.0M
20260424T00Z_MSC_RDPS_Precip-Accum1h_Sfc_RLatLon0.09_PT001H.grib2 2026-04-24 02:40 1.1M
20260424T00Z_MSC_RDPS_Precip-Accum_Sfc_RLatLon0.09_PT001H.grib2 2026-04-24 02:40 1.1M
20260424T00Z_MSC_RDPS_PrecipRate_Sfc_RLatLon0.09_PT001H.grib2 2026-04-24 02:40 117K
20260424T00Z_MSC_RDPS_PrecipType-Instant_Sfc_RLatLon0.09_PT001H.grib2 2026-04-24 02:40 497K
20260424T00Z_MSC_RDPS_Pressure_MSL_RLatLon0.09_PT001H.grib2 2026-04-24 02:40 326K
20260424T00Z_MSC_RDPS_Pressure_PVU-1.5_RLatLon0.09_PT001H.grib2 2026-04-24 02:40 2.4M
20260424T00Z_MSC_RDPS_Pressure_PVU-1_RLatLon0.09_PT001H.grib2 2026-04-24 02:40 2.4M
20260424T00Z_MSC_RDPS_Pressure_PVU-2_RLatLon0.09_PT001H.grib2 2026-04-24 02:40 2.4M
20260424T00Z_MSC_RDPS_Pressure_Sfc_RLatLon0.09_PT001H.grib2 2026-04-24 02:40 499K
20260424T00Z_MSC_RDPS_RadiativeTemp_Sfc_RLatLon0.09_PT001H.grib2 2026-04-24 02:40 293K
20260424T00Z_MSC_RDPS_Rain-Accum1h_Sfc_RLatLon0.09_PT001H.grib2 2026-04-24 02:40 450K
20260424T00Z_MSC_RDPS_Rain-Accum_Sfc_RLatLon0.09_PT001H.grib2 2026-04-24 02:40 714K
20260424T00Z_MSC_RDPS_RelativeHumidity_AGL-2m_RLatLon0.09_PT001H.grib2 2026-04-24 02:40 1.0M
20260424T00Z_MSC_RDPS_RelativeHumidity_IsbL-0010_RLatLon0.09_PT001H.grib2 2026-04-24 02:40 621K
20260424T00Z_MSC_RDPS_RelativeHumidity_IsbL-0020_RLatLon0.09_PT001H.grib2 2026-04-24 02:40 649K
20260424T00Z_MSC_RDPS_RelativeHumidity_IsbL-0030_RLatLon0.09_PT001H.grib2 2026-04-24 02:40 534K
20260424T00Z_MSC_RDPS_RelativeHumidity_IsbL-0050_RLatLon0.09_PT001H.grib2 2026-04-24 02:40 366K
20260424T00Z_MSC_RDPS_RelativeHumidity_IsbL-0100_RLatLon0.09_PT001H.grib2 2026-04-24 02:40 248K
20260424T00Z_MSC_RDPS_RelativeHumidity_IsbL-0150_RLatLon0.09_PT001H.grib2 2026-04-24 02:40 387K
20260424T00Z_MSC_RDPS_RelativeHumidity_IsbL-0175_RLatLon0.09_PT001H.grib2 2026-04-24 02:40 482K
20260424T00Z_MSC_RDPS_RelativeHumidity_IsbL-0200_RLatLon0.09_PT001H.grib2 2026-04-24 02:40 563K
20260424T00Z_MSC_RDPS_RelativeHumidity_IsbL-0225_RLatLon0.09_PT001H.grib2 2026-04-24 02:40 624K
20260424T00Z_MSC_RDPS_RelativeHumidity_IsbL-0250_RLatLon0.09_PT001H.grib2 2026-04-24 02:40 682K
20260424T00Z_MSC_RDPS_RelativeHumidity_IsbL-0275_RLatLon0.09_PT001H.grib2 2026-04-24 02:40 705K
20260424T00Z_MSC_RDPS_RelativeHumidity_IsbL-0300_RLatLon0.09_PT001H.grib2 2026-04-24 02:40 742K
20260424T00Z_MSC_RDPS_RelativeHumidity_IsbL-0350_RLatLon0.09_PT001H.grib2 2026-04-24 02:40 759K
20260424T00Z_MSC_RDPS_RelativeHumidity_IsbL-0400_RLatLon0.09_PT001H.grib2 2026-04-24 02:40 765K
20260424T00Z_MSC_RDPS_RelativeHumidity_IsbL-0450_RLatLon0.09_PT001H.grib2 2026-04-24 02:40 775K
20260424T00Z_MSC_RDPS_RelativeHumidity_IsbL-0500_RLatLon0.09_PT001H.grib2 2026-04-24 02:40 803K
20260424T00Z_MSC_RDPS_RelativeHumidity_IsbL-0550_RLatLon0.09_PT001H.grib2 2026-04-24 02:40 824K
20260424T00Z_MSC_RDPS_RelativeHumidity_IsbL-0600_RLatLon0.09_PT001H.grib2 2026-04-24 02:40 840K
20260424T00Z_MSC_RDPS_RelativeHumidity_IsbL-0650_RLatLon0.09_PT001H.grib2 2026-04-24 02:40 846K
20260424T00Z_MSC_RDPS_RelativeHumidity_IsbL-0700_RLatLon0.09_PT001H.grib2 2026-04-24 02:40 862K
20260424T00Z_MSC_RDPS_RelativeHumidity_IsbL-0750_RLatLon0.09_PT001H.grib2 2026-04-24 02:40 898K
20260424T00Z_MSC_RDPS_RelativeHumidity_IsbL-0800_RLatLon0.09_PT001H.grib2 2026-04-24 02:40 963K
20260424T00Z_MSC_RDPS_RelativeHumidity_IsbL-0850_RLatLon0.09_PT001H.grib2 2026-04-24 02:40 1.0M
20260424T00Z_MSC_RDPS_RelativeHumidity_IsbL-0875_RLatLon0.09_PT001H.grib2 2026-04-24 02:40 1.0M
20260424T00Z_MSC_RDPS_RelativeHumidity_IsbL-0900_RLatLon0.09_PT001H.grib2 2026-04-24 02:40 1.0M
20260424T00Z_MSC_RDPS_RelativeHumidity_IsbL-0925_RLatLon0.09_PT001H.grib2 2026-04-24 02:40 1.0M
20260424T00Z_MSC_RDPS_RelativeHumidity_IsbL-0950_RLatLon0.09_PT001H.grib2 2026-04-24 02:40 1.0M
20260424T00Z_MSC_RDPS_RelativeHumidity_IsbL-0970_RLatLon0.09_PT001H.grib2 2026-04-24 02:40 1.0M
20260424T00Z_MSC_RDPS_RelativeHumidity_IsbL-0985_RLatLon0.09_PT001H.grib2 2026-04-24 02:40 1.0M
20260424T00Z_MSC_RDPS_RelativeHumidity_IsbL-1000_RLatLon0.09_PT001H.grib2 2026-04-24 02:40 1.0M
20260424T00Z_MSC_RDPS_RelativeHumidity_IsbL-1015_RLatLon0.09_PT001H.grib2 2026-04-24 02:40 1.0M
20260424T00Z_MSC_RDPS_Runoff-Accum_Sfc_RLatLon0.09_PT001H.grib2 2026-04-24 02:40 29K
20260424T00Z_MSC_RDPS_SWEATIndex_Sfc_RLatLon0.09_PT001H.grib2 2026-04-24 02:40 2.4M
20260424T00Z_MSC_RDPS_SeeingIndex_EAtm_RLatLon0.09_PT001H.grib2 2026-04-24 02:40 1.0M
20260424T00Z_MSC_RDPS_SensibleHeatNetFlux_Sfc_RLatLon0.09_PT001H.grib2 2026-04-24 02:40 300K
20260424T00Z_MSC_RDPS_ShowalterIndex_IsbL-0500_RLatLon0.09_PT001H.grib2 2026-04-24 02:40 2.6M
20260424T00Z_MSC_RDPS_SkyTransparencyIndex_EAtm_RLatLon0.09_PT001H.grib2 2026-04-24 02:40 713K
20260424T00Z_MSC_RDPS_Snow-Accum1h_Sfc_RLatLon0.09_PT001H.grib2 2026-04-24 02:40 439K
20260424T00Z_MSC_RDPS_Snow-Accum_Sfc_RLatLon0.09_PT001H.grib2 2026-04-24 02:40 560K
20260424T00Z_MSC_RDPS_SnowDensity_Sfc_RLatLon0.09_PT001H.grib2 2026-04-24 02:40 170K
20260424T00Z_MSC_RDPS_SnowDepth_Sfc_RLatLon0.09_PT001H.grib2 2026-04-24 02:40 697K
20260424T00Z_MSC_RDPS_SoilTemp_DBS-0to10cm_RLatLon0.09_PT001H.grib2 2026-04-24 02:40 188K
20260424T00Z_MSC_RDPS_SoilTemp_Sfc_RLatLon0.09_PT001H.grib2 2026-04-24 02:40 248K
20260424T00Z_MSC_RDPS_SoilVolumetricIceContent_Sfc_RLatLon0.09_PT001H.grib2 2026-04-24 02:40 168K
20260424T00Z_MSC_RDPS_SoilVolumetricWaterContent_DBS-0to10cm_RLatLon0.09_PT001H.grib2 2026-04-24 02:40 252K
20260424T00Z_MSC_RDPS_SoilVolumetricWaterContent_DBS-0to1cm_RLatLon0.09_PT001H.grib2 2026-04-24 02:40 330K
20260424T00Z_MSC_RDPS_SpecificHumidity_AGL-120m_RLatLon0.09_PT001H.grib2 2026-04-24 02:40 455K
20260424T00Z_MSC_RDPS_SpecificHumidity_AGL-2m_RLatLon0.09_PT001H.grib2 2026-04-24 02:40 616K
20260424T00Z_MSC_RDPS_SpecificHumidity_AGL-40m_RLatLon0.09_PT001H.grib2 2026-04-24 02:40 460K
20260424T00Z_MSC_RDPS_SpecificHumidity_AGL-80m_RLatLon0.09_PT001H.grib2 2026-04-24 02:40 456K
20260424T00Z_MSC_RDPS_SpecificHumidity_IsbL-0001_RLatLon0.09_PT001H.grib2 2026-04-24 02:40 327K
20260424T00Z_MSC_RDPS_SpecificHumidity_IsbL-0005_RLatLon0.09_PT001H.grib2 2026-04-24 02:40 447K
20260424T00Z_MSC_RDPS_SpecificHumidity_IsbL-0010_RLatLon0.09_PT001H.grib2 2026-04-24 02:40 384K
20260424T00Z_MSC_RDPS_SpecificHumidity_IsbL-0020_RLatLon0.09_PT001H.grib2 2026-04-24 02:40 377K
20260424T00Z_MSC_RDPS_SpecificHumidity_IsbL-0030_RLatLon0.09_PT001H.grib2 2026-04-24 02:40 473K
20260424T00Z_MSC_RDPS_SpecificHumidity_IsbL-0050_RLatLon0.09_PT001H.grib2 2026-04-24 02:40 462K
20260424T00Z_MSC_RDPS_SpecificHumidity_IsbL-0100_RLatLon0.09_PT001H.grib2 2026-04-24 02:40 387K
20260424T00Z_MSC_RDPS_SpecificHumidity_IsbL-0150_RLatLon0.09_PT001H.grib2 2026-04-24 02:40 466K
20260424T00Z_MSC_RDPS_SpecificHumidity_IsbL-0175_RLatLon0.09_PT001H.grib2 2026-04-24 02:40 439K
20260424T00Z_MSC_RDPS_SpecificHumidity_IsbL-0200_RLatLon0.09_PT001H.grib2 2026-04-24 02:40 554K
20260424T00Z_MSC_RDPS_SpecificHumidity_IsbL-0225_RLatLon0.09_PT001H.grib2 2026-04-24 02:40 557K
20260424T00Z_MSC_RDPS_SpecificHumidity_IsbL-0250_RLatLon0.09_PT001H.grib2 2026-04-24 02:40 553K
20260424T00Z_MSC_RDPS_SpecificHumidity_IsbL-0275_RLatLon0.09_PT001H.grib2 2026-04-24 02:40 471K
20260424T00Z_MSC_RDPS_SpecificHumidity_IsbL-0300_RLatLon0.09_PT001H.grib2 2026-04-24 02:40 538K
20260424T00Z_MSC_RDPS_SpecificHumidity_IsbL-0350_RLatLon0.09_PT001H.grib2 2026-04-24 02:40 525K
20260424T00Z_MSC_RDPS_SpecificHumidity_IsbL-0400_RLatLon0.09_PT001H.grib2 2026-04-24 02:40 504K
20260424T00Z_MSC_RDPS_SpecificHumidity_IsbL-0450_RLatLon0.09_PT001H.grib2 2026-04-24 02:40 560K
20260424T00Z_MSC_RDPS_SpecificHumidity_IsbL-0500_RLatLon0.09_PT001H.grib2 2026-04-24 02:40 503K
20260424T00Z_MSC_RDPS_SpecificHumidity_IsbL-0550_RLatLon0.09_PT001H.grib2 2026-04-24 02:40 559K
20260424T00Z_MSC_RDPS_SpecificHumidity_IsbL-0600_RLatLon0.09_PT001H.grib2 2026-04-24 02:40 625K
20260424T00Z_MSC_RDPS_SpecificHumidity_IsbL-0650_RLatLon0.09_PT001H.grib2 2026-04-24 02:40 536K
20260424T00Z_MSC_RDPS_SpecificHumidity_IsbL-0700_RLatLon0.09_PT001H.grib2 2026-04-24 02:40 571K
20260424T00Z_MSC_RDPS_SpecificHumidity_IsbL-0750_RLatLon0.09_PT001H.grib2 2026-04-24 02:40 620K
20260424T00Z_MSC_RDPS_SpecificHumidity_IsbL-0800_RLatLon0.09_PT001H.grib2 2026-04-24 02:40 701K
20260424T00Z_MSC_RDPS_SpecificHumidity_IsbL-0850_RLatLon0.09_PT001H.grib2 2026-04-24 02:40 764K
20260424T00Z_MSC_RDPS_SpecificHumidity_IsbL-0875_RLatLon0.09_PT001H.grib2 2026-04-24 02:40 784K
20260424T00Z_MSC_RDPS_SpecificHumidity_IsbL-0900_RLatLon0.09_PT001H.grib2 2026-04-24 02:40 799K
20260424T00Z_MSC_RDPS_SpecificHumidity_IsbL-0925_RLatLon0.09_PT001H.grib2 2026-04-24 02:40 804K
20260424T00Z_MSC_RDPS_SpecificHumidity_IsbL-0950_RLatLon0.09_PT001H.grib2 2026-04-24 02:40 802K
20260424T00Z_MSC_RDPS_SpecificHumidity_IsbL-0970_RLatLon0.09_PT001H.grib2 2026-04-24 02:40 660K
20260424T00Z_MSC_RDPS_SpecificHumidity_IsbL-0985_RLatLon0.09_PT001H.grib2 2026-04-24 02:40 651K
20260424T00Z_MSC_RDPS_SpecificHumidity_IsbL-1000_RLatLon0.09_PT001H.grib2 2026-04-24 02:40 640K
20260424T00Z_MSC_RDPS_SpecificHumidity_IsbL-1015_RLatLon0.09_PT001H.grib2 2026-04-24 02:40 626K
20260424T00Z_MSC_RDPS_SpecificHumidity_Sfc_RLatLon0.09_PT001H.grib2 2026-04-24 02:40 291K
20260424T00Z_MSC_RDPS_StormRelativeHelicity_EtaL-10000_RLatLon0.09_PT001H.grib2 2026-04-24 02:40 1.1M
20260424T00Z_MSC_RDPS_StormSeverityIndex_EtaL-10000_RLatLon0.09_PT001H.grib2 2026-04-24 02:40 1.2M
20260424T00Z_MSC_RDPS_Thickness_IsbL-0850to0700_RLatLon0.09_PT001H.grib2 2026-04-24 02:40 176K
20260424T00Z_MSC_RDPS_Thickness_IsbL-1000to0500_RLatLon0.09_PT001H.grib2 2026-04-24 02:40 199K
20260424T00Z_MSC_RDPS_Thickness_IsbL-1000to0850_RLatLon0.09_PT001H.grib2 2026-04-24 02:40 183K
20260424T00Z_MSC_RDPS_TotalCloudCover_Sfc_RLatLon0.09_PT001H.grib2 2026-04-24 02:40 634K
20260424T00Z_MSC_RDPS_TotalTotalsIndex_Sfc_RLatLon0.09_PT001H.grib2 2026-04-24 02:40 2.4M
20260424T00Z_MSC_RDPS_UVIndex-ClearSky_Sfc_RLatLon0.09_PT001H.grib2 2026-04-24 02:40 135K
20260424T00Z_MSC_RDPS_UVIndex_Sfc_RLatLon0.09_PT001H.grib2 2026-04-24 02:40 295K
20260424T00Z_MSC_RDPS_UpwardLongwaveRadiationFlux_NTAtm_RLatLon0.09_PT001H.grib2 2026-04-24 02:40 476K
20260424T00Z_MSC_RDPS_UpwardShortwaveRadiationFlux_NTAtm_RLatLon0.09_PT001H.grib2 2026-04-24 02:40 277K
20260424T00Z_MSC_RDPS_VerticalVelocity_IsbL-0250_RLatLon0.09_PT001H.grib2 2026-04-24 02:40 587K
20260424T00Z_MSC_RDPS_VerticalVelocity_IsbL-0500_RLatLon0.09_PT001H.grib2 2026-04-24 02:40 547K
20260424T00Z_MSC_RDPS_VerticalVelocity_IsbL-0700_RLatLon0.09_PT001H.grib2 2026-04-24 02:40 597K
20260424T00Z_MSC_RDPS_VerticalVelocity_IsbL-0850_RLatLon0.09_PT001H.grib2 2026-04-24 02:40 688K
20260424T00Z_MSC_RDPS_VerticalWindShear_EtaL-6500_RLatLon0.09_PT001H.grib2 2026-04-24 02:40 1.2M
20260424T00Z_MSC_RDPS_WindChill_Sfc_RLatLon0.09_PT001H.grib2 2026-04-24 02:40 1.2M
20260424T00Z_MSC_RDPS_WindDir_AGL-10m_RLatLon0.09_PT001H.grib2 2026-04-24 02:40 926K
20260424T00Z_MSC_RDPS_WindDir_AGL-120m_RLatLon0.09_PT001H.grib2 2026-04-24 02:40 577K
20260424T00Z_MSC_RDPS_WindDir_AGL-40m_RLatLon0.09_PT001H.grib2 2026-04-24 02:40 601K
20260424T00Z_MSC_RDPS_WindDir_AGL-80m_RLatLon0.09_PT001H.grib2 2026-04-24 02:40 587K
20260424T00Z_MSC_RDPS_WindDir_IsbL-0001_RLatLon0.09_PT001H.grib2 2026-04-24 02:40 261K
20260424T00Z_MSC_RDPS_WindDir_IsbL-0005_RLatLon0.09_PT001H.grib2 2026-04-24 02:40 362K
20260424T00Z_MSC_RDPS_WindDir_IsbL-0010_RLatLon0.09_PT001H.grib2 2026-04-24 02:40 382K
20260424T00Z_MSC_RDPS_WindDir_IsbL-0020_RLatLon0.09_PT001H.grib2 2026-04-24 02:40 398K
20260424T00Z_MSC_RDPS_WindDir_IsbL-0030_RLatLon0.09_PT001H.grib2 2026-04-24 02:40 393K
20260424T00Z_MSC_RDPS_WindDir_IsbL-0050_RLatLon0.09_PT001H.grib2 2026-04-24 02:40 412K
20260424T00Z_MSC_RDPS_WindDir_IsbL-0100_RLatLon0.09_PT001H.grib2 2026-04-24 02:40 401K
20260424T00Z_MSC_RDPS_WindDir_IsbL-0150_RLatLon0.09_PT001H.grib2 2026-04-24 02:40 410K
20260424T00Z_MSC_RDPS_WindDir_IsbL-0175_RLatLon0.09_PT001H.grib2 2026-04-24 02:40 429K
20260424T00Z_MSC_RDPS_WindDir_IsbL-0200_RLatLon0.09_PT001H.grib2 2026-04-24 02:40 437K
20260424T00Z_MSC_RDPS_WindDir_IsbL-0225_RLatLon0.09_PT001H.grib2 2026-04-24 02:40 437K
20260424T00Z_MSC_RDPS_WindDir_IsbL-0250_RLatLon0.09_PT001H.grib2 2026-04-24 02:40 435K
20260424T00Z_MSC_RDPS_WindDir_IsbL-0275_RLatLon0.09_PT001H.grib2 2026-04-24 02:40 454K
20260424T00Z_MSC_RDPS_WindDir_IsbL-0300_RLatLon0.09_PT001H.grib2 2026-04-24 02:40 457K
20260424T00Z_MSC_RDPS_WindDir_IsbL-0350_RLatLon0.09_PT001H.grib2 2026-04-24 02:40 475K
20260424T00Z_MSC_RDPS_WindDir_IsbL-0400_RLatLon0.09_PT001H.grib2 2026-04-24 02:40 493K
20260424T00Z_MSC_RDPS_WindDir_IsbL-0450_RLatLon0.09_PT001H.grib2 2026-04-24 02:40 514K
20260424T00Z_MSC_RDPS_WindDir_IsbL-0500_RLatLon0.09_PT001H.grib2 2026-04-24 02:40 535K
20260424T00Z_MSC_RDPS_WindDir_IsbL-0550_RLatLon0.09_PT001H.grib2 2026-04-24 02:40 561K
20260424T00Z_MSC_RDPS_WindDir_IsbL-0600_RLatLon0.09_PT001H.grib2 2026-04-24 02:40 588K
20260424T00Z_MSC_RDPS_WindDir_IsbL-0650_RLatLon0.09_PT001H.grib2 2026-04-24 02:40 624K
20260424T00Z_MSC_RDPS_WindDir_IsbL-0700_RLatLon0.09_PT001H.grib2 2026-04-24 02:40 665K
20260424T00Z_MSC_RDPS_WindDir_IsbL-0750_RLatLon0.09_PT001H.grib2 2026-04-24 02:40 717K
20260424T00Z_MSC_RDPS_WindDir_IsbL-0800_RLatLon0.09_PT001H.grib2 2026-04-24 02:40 782K
20260424T00Z_MSC_RDPS_WindDir_IsbL-0850_RLatLon0.09_PT001H.grib2 2026-04-24 02:40 843K
20260424T00Z_MSC_RDPS_WindDir_IsbL-0875_RLatLon0.09_PT001H.grib2 2026-04-24 02:40 860K
20260424T00Z_MSC_RDPS_WindDir_IsbL-0900_RLatLon0.09_PT001H.grib2 2026-04-24 02:40 876K
20260424T00Z_MSC_RDPS_WindDir_IsbL-0925_RLatLon0.09_PT001H.grib2 2026-04-24 02:40 881K
20260424T00Z_MSC_RDPS_WindDir_IsbL-0950_RLatLon0.09_PT001H.grib2 2026-04-24 02:40 874K
20260424T00Z_MSC_RDPS_WindDir_IsbL-0970_RLatLon0.09_PT001H.grib2 2026-04-24 02:40 881K
20260424T00Z_MSC_RDPS_WindDir_IsbL-0985_RLatLon0.09_PT001H.grib2 2026-04-24 02:40 890K
20260424T00Z_MSC_RDPS_WindDir_IsbL-1000_RLatLon0.09_PT001H.grib2 2026-04-24 02:40 902K
20260424T00Z_MSC_RDPS_WindDir_IsbL-1015_RLatLon0.09_PT001H.grib2 2026-04-24 02:40 917K
20260424T00Z_MSC_RDPS_WindGust-Max_AGL-10m_RLatLon0.09_PT001H.grib2 2026-04-24 02:40 1.0M
20260424T00Z_MSC_RDPS_WindGust-Min_AGL-10m_RLatLon0.09_PT001H.grib2 2026-04-24 02:40 961K
20260424T00Z_MSC_RDPS_WindGust_AGL-10m_RLatLon0.09_PT001H.grib2 2026-04-24 02:40 1.0M
20260424T00Z_MSC_RDPS_WindSpeed_AGL-10m_RLatLon0.09_PT001H.grib2 2026-04-24 02:40 824K
20260424T00Z_MSC_RDPS_WindSpeed_AGL-120m_RLatLon0.09_PT001H.grib2 2026-04-24 02:40 526K
20260424T00Z_MSC_RDPS_WindSpeed_AGL-40m_RLatLon0.09_PT001H.grib2 2026-04-24 02:40 533K
20260424T00Z_MSC_RDPS_WindSpeed_AGL-80m_RLatLon0.09_PT001H.grib2 2026-04-24 02:40 528K
20260424T00Z_MSC_RDPS_WindSpeed_IsbL-0001_RLatLon0.09_PT001H.grib2 2026-04-24 02:40 242K
20260424T00Z_MSC_RDPS_WindSpeed_IsbL-0005_RLatLon0.09_PT001H.grib2 2026-04-24 02:40 284K
20260424T00Z_MSC_RDPS_WindSpeed_IsbL-0010_RLatLon0.09_PT001H.grib2 2026-04-24 02:40 295K
20260424T00Z_MSC_RDPS_WindSpeed_IsbL-0020_RLatLon0.09_PT001H.grib2 2026-04-24 02:40 405K
20260424T00Z_MSC_RDPS_WindSpeed_IsbL-0030_RLatLon0.09_PT001H.grib2 2026-04-24 02:40 311K
20260424T00Z_MSC_RDPS_WindSpeed_IsbL-0050_RLatLon0.09_PT001H.grib2 2026-04-24 02:40 443K
20260424T00Z_MSC_RDPS_WindSpeed_IsbL-0100_RLatLon0.09_PT001H.grib2 2026-04-24 02:40 465K
20260424T00Z_MSC_RDPS_WindSpeed_IsbL-0150_RLatLon0.09_PT001H.grib2 2026-04-24 02:40 372K
20260424T00Z_MSC_RDPS_WindSpeed_IsbL-0175_RLatLon0.09_PT001H.grib2 2026-04-24 02:40 425K
20260424T00Z_MSC_RDPS_WindSpeed_IsbL-0200_RLatLon0.09_PT001H.grib2 2026-04-24 02:40 444K
20260424T00Z_MSC_RDPS_WindSpeed_IsbL-0225_RLatLon0.09_PT001H.grib2 2026-04-24 02:40 450K
20260424T00Z_MSC_RDPS_WindSpeed_IsbL-0250_RLatLon0.09_PT001H.grib2 2026-04-24 02:40 454K
20260424T00Z_MSC_RDPS_WindSpeed_IsbL-0275_RLatLon0.09_PT001H.grib2 2026-04-24 02:40 468K
20260424T00Z_MSC_RDPS_WindSpeed_IsbL-0300_RLatLon0.09_PT001H.grib2 2026-04-24 02:40 463K
20260424T00Z_MSC_RDPS_WindSpeed_IsbL-0350_RLatLon0.09_PT001H.grib2 2026-04-24 02:40 470K
20260424T00Z_MSC_RDPS_WindSpeed_IsbL-0400_RLatLon0.09_PT001H.grib2 2026-04-24 02:40 470K
20260424T00Z_MSC_RDPS_WindSpeed_IsbL-0450_RLatLon0.09_PT001H.grib2 2026-04-24 02:40 454K
20260424T00Z_MSC_RDPS_WindSpeed_IsbL-0500_RLatLon0.09_PT001H.grib2 2026-04-24 02:40 458K
20260424T00Z_MSC_RDPS_WindSpeed_IsbL-0550_RLatLon0.09_PT001H.grib2 2026-04-24 02:40 463K
20260424T00Z_MSC_RDPS_WindSpeed_IsbL-0600_RLatLon0.09_PT001H.grib2 2026-04-24 02:40 589K
20260424T00Z_MSC_RDPS_WindSpeed_IsbL-0650_RLatLon0.09_PT001H.grib2 2026-04-24 02:40 606K
20260424T00Z_MSC_RDPS_WindSpeed_IsbL-0700_RLatLon0.09_PT001H.grib2 2026-04-24 02:40 627K
20260424T00Z_MSC_RDPS_WindSpeed_IsbL-0750_RLatLon0.09_PT001H.grib2 2026-04-24 02:40 655K
20260424T00Z_MSC_RDPS_WindSpeed_IsbL-0800_RLatLon0.09_PT001H.grib2 2026-04-24 02:40 707K
20260424T00Z_MSC_RDPS_WindSpeed_IsbL-0850_RLatLon0.09_PT001H.grib2 2026-04-24 02:40 799K
20260424T00Z_MSC_RDPS_WindSpeed_IsbL-0875_RLatLon0.09_PT001H.grib2 2026-04-24 02:40 816K
20260424T00Z_MSC_RDPS_WindSpeed_IsbL-0900_RLatLon0.09_PT001H.grib2 2026-04-24 02:40 831K
20260424T00Z_MSC_RDPS_WindSpeed_IsbL-0925_RLatLon0.09_PT001H.grib2 2026-04-24 02:40 844K
20260424T00Z_MSC_RDPS_WindSpeed_IsbL-0950_RLatLon0.09_PT001H.grib2 2026-04-24 02:40 844K
20260424T00Z_MSC_RDPS_WindSpeed_IsbL-0970_RLatLon0.09_PT001H.grib2 2026-04-24 02:40 844K
20260424T00Z_MSC_RDPS_WindSpeed_IsbL-0985_RLatLon0.09_PT001H.grib2 2026-04-24 02:40 843K
20260424T00Z_MSC_RDPS_WindSpeed_IsbL-1000_RLatLon0.09_PT001H.grib2 2026-04-24 02:40 837K
20260424T00Z_MSC_RDPS_WindSpeed_IsbL-1015_RLatLon0.09_PT001H.grib2 2026-04-24 02:40 827K
20260424T00Z_MSC_RDPS_WindU_AGL-10m_RLatLon0.09_PT001H.grib2 2026-04-24 02:40 427K
20260424T00Z_MSC_RDPS_WindU_AGL-120m_RLatLon0.09_PT001H.grib2 2026-04-24 02:40 525K
20260424T00Z_MSC_RDPS_WindU_AGL-40m_RLatLon0.09_PT001H.grib2 2026-04-24 02:40 529K
20260424T00Z_MSC_RDPS_WindU_AGL-80m_RLatLon0.09_PT001H.grib2 2026-04-24 02:40 527K
20260424T00Z_MSC_RDPS_WindU_IsbL-0001_RLatLon0.09_PT001H.grib2 2026-04-24 02:40 234K
20260424T00Z_MSC_RDPS_WindU_IsbL-0005_RLatLon0.09_PT001H.grib2 2026-04-24 02:40 276K
20260424T00Z_MSC_RDPS_WindU_IsbL-0010_RLatLon0.09_PT001H.grib2 2026-04-24 02:40 285K
20260424T00Z_MSC_RDPS_WindU_IsbL-0020_RLatLon0.09_PT001H.grib2 2026-04-24 02:40 301K
20260424T00Z_MSC_RDPS_WindU_IsbL-0030_RLatLon0.09_PT001H.grib2 2026-04-24 02:40 343K
20260424T00Z_MSC_RDPS_WindU_IsbL-0050_RLatLon0.09_PT001H.grib2 2026-04-24 02:40 333K
20260424T00Z_MSC_RDPS_WindU_IsbL-0100_RLatLon0.09_PT001H.grib2 2026-04-24 02:40 418K
20260424T00Z_MSC_RDPS_WindU_IsbL-0150_RLatLon0.09_PT001H.grib2 2026-04-24 02:40 389K
20260424T00Z_MSC_RDPS_WindU_IsbL-0175_RLatLon0.09_PT001H.grib2 2026-04-24 02:40 418K
20260424T00Z_MSC_RDPS_WindU_IsbL-0200_RLatLon0.09_PT001H.grib2 2026-04-24 02:40 437K
20260424T00Z_MSC_RDPS_WindU_IsbL-0225_RLatLon0.09_PT001H.grib2 2026-04-24 02:40 441K
20260424T00Z_MSC_RDPS_WindU_IsbL-0250_RLatLon0.09_PT001H.grib2 2026-04-24 02:40 442K
20260424T00Z_MSC_RDPS_WindU_IsbL-0275_RLatLon0.09_PT001H.grib2 2026-04-24 02:40 356K
20260424T00Z_MSC_RDPS_WindU_IsbL-0300_RLatLon0.09_PT001H.grib2 2026-04-24 02:40 351K
20260424T00Z_MSC_RDPS_WindU_IsbL-0350_RLatLon0.09_PT001H.grib2 2026-04-24 02:40 356K
20260424T00Z_MSC_RDPS_WindU_IsbL-0400_RLatLon0.09_PT001H.grib2 2026-04-24 02:40 357K
20260424T00Z_MSC_RDPS_WindU_IsbL-0450_RLatLon0.09_PT001H.grib2 2026-04-24 02:40 459K
20260424T00Z_MSC_RDPS_WindU_IsbL-0500_RLatLon0.09_PT001H.grib2 2026-04-24 02:40 464K
20260424T00Z_MSC_RDPS_WindU_IsbL-0550_RLatLon0.09_PT001H.grib2 2026-04-24 02:40 468K
20260424T00Z_MSC_RDPS_WindU_IsbL-0600_RLatLon0.09_PT001H.grib2 2026-04-24 02:40 479K
20260424T00Z_MSC_RDPS_WindU_IsbL-0650_RLatLon0.09_PT001H.grib2 2026-04-24 02:40 494K
20260424T00Z_MSC_RDPS_WindU_IsbL-0700_RLatLon0.09_PT001H.grib2 2026-04-24 02:40 495K
20260424T00Z_MSC_RDPS_WindU_IsbL-0750_RLatLon0.09_PT001H.grib2 2026-04-24 02:40 522K
20260424T00Z_MSC_RDPS_WindU_IsbL-0800_RLatLon0.09_PT001H.grib2 2026-04-24 02:40 580K
20260424T00Z_MSC_RDPS_WindU_IsbL-0850_RLatLon0.09_PT001H.grib2 2026-04-24 02:40 619K
20260424T00Z_MSC_RDPS_WindU_IsbL-0875_RLatLon0.09_PT001H.grib2 2026-04-24 02:40 623K
20260424T00Z_MSC_RDPS_WindU_IsbL-0900_RLatLon0.09_PT001H.grib2 2026-04-24 02:40 635K
20260424T00Z_MSC_RDPS_WindU_IsbL-0925_RLatLon0.09_PT001H.grib2 2026-04-24 02:40 643K
20260424T00Z_MSC_RDPS_WindU_IsbL-0950_RLatLon0.09_PT001H.grib2 2026-04-24 02:40 640K
20260424T00Z_MSC_RDPS_WindU_IsbL-0970_RLatLon0.09_PT001H.grib2 2026-04-24 02:40 643K
20260424T00Z_MSC_RDPS_WindU_IsbL-0985_RLatLon0.09_PT001H.grib2 2026-04-24 02:40 780K
20260424T00Z_MSC_RDPS_WindU_IsbL-1000_RLatLon0.09_PT001H.grib2 2026-04-24 02:40 773K
20260424T00Z_MSC_RDPS_WindU_IsbL-1015_RLatLon0.09_PT001H.grib2 2026-04-24 02:40 765K
20260424T00Z_MSC_RDPS_WindV_AGL-10m_RLatLon0.09_PT001H.grib2 2026-04-24 02:40 425K
20260424T00Z_MSC_RDPS_WindV_AGL-120m_RLatLon0.09_PT001H.grib2 2026-04-24 02:40 408K
20260424T00Z_MSC_RDPS_WindV_AGL-40m_RLatLon0.09_PT001H.grib2 2026-04-24 02:40 412K
20260424T00Z_MSC_RDPS_WindV_AGL-80m_RLatLon0.09_PT001H.grib2 2026-04-24 02:40 410K
20260424T00Z_MSC_RDPS_WindV_IsbL-0001_RLatLon0.09_PT001H.grib2 2026-04-24 02:40 284K
20260424T00Z_MSC_RDPS_WindV_IsbL-0005_RLatLon0.09_PT001H.grib2 2026-04-24 02:40 319K
20260424T00Z_MSC_RDPS_WindV_IsbL-0010_RLatLon0.09_PT001H.grib2 2026-04-24 02:40 285K
20260424T00Z_MSC_RDPS_WindV_IsbL-0020_RLatLon0.09_PT001H.grib2 2026-04-24 02:40 302K
20260424T00Z_MSC_RDPS_WindV_IsbL-0030_RLatLon0.09_PT001H.grib2 2026-04-24 02:40 342K
20260424T00Z_MSC_RDPS_WindV_IsbL-0050_RLatLon0.09_PT001H.grib2 2026-04-24 02:40 333K
20260424T00Z_MSC_RDPS_WindV_IsbL-0100_RLatLon0.09_PT001H.grib2 2026-04-24 02:40 323K
20260424T00Z_MSC_RDPS_WindV_IsbL-0150_RLatLon0.09_PT001H.grib2 2026-04-24 02:40 388K
20260424T00Z_MSC_RDPS_WindV_IsbL-0175_RLatLon0.09_PT001H.grib2 2026-04-24 02:40 323K
20260424T00Z_MSC_RDPS_WindV_IsbL-0200_RLatLon0.09_PT001H.grib2 2026-04-24 02:40 338K
20260424T00Z_MSC_RDPS_WindV_IsbL-0225_RLatLon0.09_PT001H.grib2 2026-04-24 02:40 367K
20260424T00Z_MSC_RDPS_WindV_IsbL-0250_RLatLon0.09_PT001H.grib2 2026-04-24 02:40 367K
20260424T00Z_MSC_RDPS_WindV_IsbL-0275_RLatLon0.09_PT001H.grib2 2026-04-24 02:40 377K
20260424T00Z_MSC_RDPS_WindV_IsbL-0300_RLatLon0.09_PT001H.grib2 2026-04-24 02:40 373K
20260424T00Z_MSC_RDPS_WindV_IsbL-0350_RLatLon0.09_PT001H.grib2 2026-04-24 02:40 353K
20260424T00Z_MSC_RDPS_WindV_IsbL-0400_RLatLon0.09_PT001H.grib2 2026-04-24 02:40 354K
20260424T00Z_MSC_RDPS_WindV_IsbL-0450_RLatLon0.09_PT001H.grib2 2026-04-24 02:40 455K
20260424T00Z_MSC_RDPS_WindV_IsbL-0500_RLatLon0.09_PT001H.grib2 2026-04-24 02:40 460K
20260424T00Z_MSC_RDPS_WindV_IsbL-0550_RLatLon0.09_PT001H.grib2 2026-04-24 02:40 465K
20260424T00Z_MSC_RDPS_WindV_IsbL-0600_RLatLon0.09_PT001H.grib2 2026-04-24 02:40 474K
20260424T00Z_MSC_RDPS_WindV_IsbL-0650_RLatLon0.09_PT001H.grib2 2026-04-24 02:40 490K
20260424T00Z_MSC_RDPS_WindV_IsbL-0700_RLatLon0.09_PT001H.grib2 2026-04-24 02:40 507K
20260424T00Z_MSC_RDPS_WindV_IsbL-0750_RLatLon0.09_PT001H.grib2 2026-04-24 02:40 532K
20260424T00Z_MSC_RDPS_WindV_IsbL-0800_RLatLon0.09_PT001H.grib2 2026-04-24 02:40 561K
20260424T00Z_MSC_RDPS_WindV_IsbL-0850_RLatLon0.09_PT001H.grib2 2026-04-24 02:40 604K
20260424T00Z_MSC_RDPS_WindV_IsbL-0875_RLatLon0.09_PT001H.grib2 2026-04-24 02:40 618K
20260424T00Z_MSC_RDPS_WindV_IsbL-0900_RLatLon0.09_PT001H.grib2 2026-04-24 02:40 630K
20260424T00Z_MSC_RDPS_WindV_IsbL-0925_RLatLon0.09_PT001H.grib2 2026-04-24 02:40 639K
20260424T00Z_MSC_RDPS_WindV_IsbL-0950_RLatLon0.09_PT001H.grib2 2026-04-24 02:40 637K
20260424T00Z_MSC_RDPS_WindV_IsbL-0970_RLatLon0.09_PT001H.grib2 2026-04-24 02:40 638K
20260424T00Z_MSC_RDPS_WindV_IsbL-0985_RLatLon0.09_PT001H.grib2 2026-04-24 02:40 637K
20260424T00Z_MSC_RDPS_WindV_IsbL-1000_RLatLon0.09_PT001H.grib2 2026-04-24 02:40 769K
20260424T00Z_MSC_RDPS_WindV_IsbL-1015_RLatLon0.09_PT001H.grib2 2026-04-24 02:40 762K